Dati Storici

Data ora Umidita' aria (%) Temperatura aria (°C) Rad globale (W/m²) Gonioanemometro (°) Tacoanemometro (m/s) Pioggia (mm)
03-07-2020 12:50 52.8 % 28.097 -68.57 3.73 0 0
03-07-2020 12:40 53.3 % 27.842 -64.885 1.457 0 0
03-07-2020 12:30 49.9 % 28.003 -82.025 1.937 0 0
03-07-2020 12:20 50.2 % 28.241 -82.153 4.516 0 0
03-07-2020 12:10 52.4 % 27.645 -79.807 1.435 0 0
03-07-2020 12:00 50.9 % 27.897 -70.805 2.507 0 0
03-07-2020 11:50 53.1 % 28.402 -53.405 1.592 0 0
03-07-2020 11:40 51.3 % 28.095 -86.043 1.898 0 0
03-07-2020 11:30 51.3 % 28.024 -74.382 1.698 0 0
03-07-2020 11:20 51.4 % 27.774 -76.186 2.186 0 0
03-07-2020 11:10 52.5 % 27.624 -81.077 1.219 0 0
03-07-2020 11:00 51.9 % 27.043 -75.283 3.735 0 0
03-07-2020 10:50 55.3 % 27.316 -64.245 1.364 0 0
03-07-2020 10:40 55.9 % 27.043 -86.044 2.145 0 0
03-07-2020 10:30 58.4 % 26.725 -77.008 2.304 0 0
03-07-2020 10:20 59 % 25.832 -83.073 0.765 0 0
03-07-2020 10:10 61.5 % 25.816 -84.274 1.506 0 0
03-07-2020 10:00 61 % 25.273 -78.217 3.586 0 0
03-07-2020 09:50 62.7 % 25.956 -82.177 0.215 0 0
03-07-2020 09:40 64 % 26.267 -82.884 1.42 0 0

I dati sono presentati in modo automatico a scopo informativo. In seguito a verifica i dati possono subire modifiche o essere invalidati e non riportati negli archivi definitivi.